This demonstration page uses our WeatherBlox Daily Observations layout. Learn more.

Left ArrowRight Arrow

Hourly Observations for August 1, 2019

Temp ( °F °C ) Dew Point ( °F °C ) Humidity (%) Winds ( mph kmh ) Pressure ( in mb ) Visibility ( mi km ) Precip ( " mm )
12:15 am 00:15 Clear 63 17 63 17 100 100 N 6 9 30.14 1021 10 16 0.00 0.00
12:35 am 00:35 Clear 62 16.5 62 16.5 100 100 NNE 5 7 30.14 1021 10 16 0.00 0.00
12:55 am 00:55 Clear 62 16.4 61 16.2 99 99 N 6 9 30.13 1020 10 16 0.00 0.00
1:15 am 01:15 Clear 61 16 61 16 100 100 N 6 9 30.13 1020 10 16 0.00 0.00
1:35 am 01:35 Clear 60 15.7 60 15.7 100 100 N 5 7 30.13 1020 10 16 0.00 0.00
1:55 am 01:55 Clear 60 15.3 60 15.3 100 100 N 5 7 30.13 1020 10 16 0.00 0.00
2:15 am 02:15 Clear 59 15.2 59 15.2 100 100 N 5 7 30.12 1020 10 16 0.00 0.00
2:35 am 02:35 Clear 59 14.8 59 14.8 100 100 N 3 6 30.12 1020 10 16 0.00 0.00
2:55 am 02:55 Clear 58 14.7 58 14.7 100 100 Calm 30.13 1020 10 16 0.00 0.00
3:15 am 03:15 Partly Cloudy 58 14.6 58 14.6 100 100 NNW 3 6 30.13 1020 10 16 0.00 0.00
3:35 am 03:35 Clear 57 14.1 57 14.1 100 100 Calm 30.14 1021 10 16 0.00 0.00
3:55 am 03:55 Clear 58 14.4 58 14.4 100 100 Calm 30.14 1020 10 16 0.00 0.00
4:15 am 04:15 Clear 58 14.2 58 14.2 100 100 Calm 30.14 1021 10 16 0.00 0.00
4:35 am 04:35 Clear 57 14 57 14 100 100 Calm 30.14 1021 10 16 0.00 0.00
4:55 am 04:55 Clear 56 13.5 56 13.5 100 100 Calm 30.14 1021 10 16 0.00 0.00
5:15 am 05:15 Clear 57 13.8 57 13.8 100 100 Calm 30.14 1021 10 16 0.00 0.00
5:35 am 05:35 Clear 55 13 55 13 100 100 Calm 30.14 1021 10 16 0.00 0.00
5:55 am 05:55 Clear 55 12.6 55 12.6 100 100 Calm 30.14 1021 10 16 0.00 0.00
6:15 am 06:15 Clear 54 12.3 54 12.3 100 100 Calm 30.14 1021 10 16 0.00 0.00
6:35 am 06:35 Clear 55 12.7 55 12.7 100 100 Calm 30.14 1021 10 16 0.00 0.00
6:55 am 06:55 Sunny 55 12.5 55 12.5 100 100 Calm 30.14 1021 10 16 0.00 0.00
7:15 am 07:15 Sunny 56 13.1 56 13.1 100 100 Calm 30.14 1021 10 16 0.00 0.00
7:35 am 07:35 Sunny 57 13.7 57 13.7 100 100 Calm 30.15 1021 10 16 0.00 0.00
7:55 am 07:55 Sunny 58 14.4 58 14.4 100 100 Calm 30.15 1021 10 16 0.00 0.00
8:15 am 08:15 Sunny 59 15.2 59 15.2 100 100 NNE 3 6 30.15 1021 10 16 0.00 0.00
8:35 am 08:35 Sunny 61 16.2 61 16.2 100 100 NNE 3 6 30.16 1021 10 16 0.00 0.00
8:55 am 08:55 Sunny 63 17.2 63 17.1 99 99 ENE 3 6 30.16 1021 10 16 0.00 0.00
9:15 am 09:15 Sunny 65 18.1 64 17.7 98 98 Calm 30.15 1021 10 16 0.00 0.00
9:35 am 09:35 Sunny 66 19 64 17.8 93 93 NNE 3 6 30.15 1021 10 16 0.00 0.00
9:55 am 09:55 Sunny 68 20 64 17.9 88 88 NE 3 6 30.15 1021 10 16 0.00 0.00
10:15 am 10:15 Sunny 70 21 64 17.9 83 83 Calm 30.13 1020 10 16 0.00 0.00
10:35 am 10:35 Sunny 71 21.7 65 18.1 80 80 E 3 6 30.14 1021 10 16 0.00 0.00
10:55 am 10:55 Sunny 72 22.1 64 17.9 77 77 E 5 7 30.14 1021 10 16 0.00 0.00
11:15 am 11:15 Sunny 73 22.9 63 17.2 70 70 Calm 30.14 1021 10 16 0.00 0.00
11:35 am 11:35 Partly Cloudy 72 22.3 61 16 68 68 Calm 30.14 1021 10 16 0.00 0.00
11:55 am 11:55 Partly Cloudy 73 22.8 61 16.3 67 67 Calm 30.14 1021 10 16 0.00 0.00
12:15 pm 12:15 Sunny 74 23.2 61 16 64 64 Calm 30.14 1021 10 16 0.00 0.00
12:35 pm 12:35 Partly Cloudy 76 24.3 62 16.5 62 62 Calm 30.13 1020 10 16 0.00 0.00
12:55 pm 12:55 Partly Cloudy 76 24.3 61 16.1 60 60 Calm 30.13 1020 10 16 0.00 0.00
1:15 pm 13:15 Sunny 76 24.2 60 15.4 58 58 Calm 30.13 1020 10 16 0.00 0.00
1:35 pm 13:35 Sunny 77 24.8 58 14.7 54 54 NE 3 6 30.13 1020 10 16 0.00 0.00
1:55 pm 13:55 Sunny 77 24.9 57 14 51 51 ENE 6 9 30.12 1020 10 16 0.00 0.00
2:15 pm 14:15 Sunny 78 25.3 58 14.6 52 52 Calm 30.12 1020 10 16 0.00 0.00
2:35 pm 14:35 Sunny 77 25.2 58 14.2 51 51 NNE 5 7 30.12 1020 10 16 0.00 0.00
2:55 pm 14:55 Sunny 79 26.1 60 15.3 51 51 ESE 3 6 30.11 1020 10 16 0.00 0.00
3:15 pm 15:15 Sunny 79 26.1 59 14.9 50 50 ENE 3 6 30.11 1020 10 16 0.00 0.00
3:35 pm 15:35 Sunny 79 26.2 59 15.1 50 50 ENE 5 7 30.10 1019 10 16 0.00 0.00
3:55 pm 15:55 Sunny 79 26.3 60 15.3 51 51 NNE 8 13 30.10 1019 10 16 0.00 0.00
4:15 pm 16:15 Sunny 80 26.6 59 15.2 50 50 NNE 5 7 30.08 1019 10 16 0.00 0.00
4:35 pm 16:35 Sunny 80 26.6 59 15.2 50 50 NNW 6 9 30.07 1018 10 16 0.00 0.00
4:55 pm 16:55 Sunny 80 26.6 58 14.6 48 48 Calm 30.07 1018 10 16 0.00 0.00
5:15 pm 17:15 Sunny 80 26.7 59 14.8 48 48 NNW 5 7 30.06 1018 10 16 0.00 0.00
5:35 pm 17:35 Sunny 80 26.8 59 14.8 48 48 Calm 30.06 1018 10 16 0.00 0.00
5:55 pm 17:55 Sunny 81 27 58 14.2 45 45 Calm 30.06 1018 10 16 0.00 0.00
6:15 pm 18:15 Sunny 81 27.2 59 15.1 48 48 NNW 8 13 30.05 1018 10 16 0.00 0.00
6:35 pm 18:35 Sunny 81 27 60 15.6 50 50 NNW 6 9 30.05 1018 10 16 0.00 0.00
6:55 pm 18:55 Sunny 80 26.9 59 14.8 48 48 NNW 6 9 30.05 1018 10 16 0.00 0.00
7:15 pm 19:15 Sunny 80 26.7 59 14.9 48 48 NNE 7 11 30.04 1017 10 16 0.00 0.00
7:35 pm 19:35 Sunny 79 26 64 17.7 60 60 NNE 10 17 30.06 1018 10 16 0.00 0.00
7:55 pm 19:55 Sunny 78 25.3 65 18.4 66 66 NNE 9 15 30.06 1018 10 16 0.00 0.00
8:15 pm 20:15 Sunny 76 24.6 66 19.1 72 72 NNE 10 17 30.06 1018 10 16 0.00 0.00
8:35 pm 20:35 Sunny 76 24.2 66 18.9 72 72 NNE 9 15 30.07 1018 10 16 0.00 0.00
8:55 pm 20:55 Sunny 74 23.5 66 19 76 76 NE 8 13 30.07 1018 10 16 0.00 0.00
9:15 pm 21:15 Clear 73 22.9 66 19.1 79 79 NE 7 11 30.08 1019 10 16 0.00 0.00
9:35 pm 21:35 Clear 73 22.5 66 19.1 81 81 NNE 7 11 30.08 1019 10 16 0.00 0.00
9:55 pm 21:55 Clear 72 22 66 19 83 83 NNE 7 11 30.09 1019 10 16 0.00 0.00
10:15 pm 22:15 Clear 71 21.6 66 18.8 84 84 NE 7 11 30.09 1019 10 16 0.00 0.00
10:35 pm 22:35 Clear 71 21.6 65 18.6 83 83 NE 6 9 30.10 1019 10 16 0.00 0.00
10:55 pm 22:55 Partly Cloudy 70 21 65 18.6 86 86 NE 6 9 30.11 1020 10 16 0.00 0.00
11:15 pm 23:15 Partly Cloudy 70 20.9 65 18.3 85 85 NE 5 7 30.11 1020 10 16 0.00 0.00
11:35 pm 23:35 Partly Cloudy 69 20.5 65 18.3 87 87 NE 6 9 30.11 1020 10 16 0.00 0.00
11:55 pm 23:55 Clear 68 20.2 65 18.2 88 88 NE 6 9 30.12 1020 10 16 0.00 0.00

Powered by AerisWeather